Home   Weather   Regina   Past weeks

Flag for Canada Past Weather in Regina, Saskatchewan, Canada — Yesterday and Last 2 Weeks

Now
34 °F

Passing clouds.


Feels Like: 26 °F
Forecast: 27 / 37 °F
Wind: 10 mph from West

Location: Regina Weather Station

Current Time: Jan 17, 2017 at 8:01:54 pm

Latest Report: Jan 17, 2017 at 7:00 pm


Visibility: 15 mi

Pressure: 29.65 "Hg (27.59 "Hg at 577m altitude)

Humidity: 87%

Dew Point: 30 °F

Location of ReginaLocation

Past Weather in Regina — Graph

°F

Regina Temperature Yesterday

Maximum temperature yesterday: 25 °F (at 2:00 pm)
Minimum temperature yesterday: 5 °F (at 12:00 am)
Average temperature yesterday: 14 °F

High & Low Weather Summary for the Past Weeks

 TemperatureHumidityPressure
High39 °F (Jan 17, 4:00 pm)93% (Jan 16, 6:00 am)30.69 "Hg (Jan 16, 6:00 am)
Low-29 °F (Jan 11, 8:00 am)57% (Jan 12, 3:00 pm)29.60 "Hg (Jan 17, 3:00 pm)
Average-3 °F78%30.21 "Hg
* Reported Jan 2 6:00 pm — Jan 17 6:00 pm, Regina, Weather by CustomWeather, © 2017

Note: Actual official high and low records may vary slightly from our data, if they occured in-between our weather recording intervals... More about our weather records

Advertising

Regina Weather History for the Previous 24 Hours

Scroll right to see more
 ConditionsComfort  
Time TempWeatherWind HumidityBarometerVisibility
6:00 pm
Tue, Jan 17
36 °FPassing clouds.6 mph81%29.64 "Hg15 mi
5:00 pm36 °FPartly sunny.9 mph87%29.62 "Hg15 mi
4:00 pm39 °FPartly sunny.12 mph75%29.61 "Hg15 mi
3:00 pm37 °FPartly sunny.13 mph75%29.60 "Hg15 mi
2:00 pm37 °FPartly sunny.18 mph75%29.60 "Hg15 mi
1:00 pm37 °FPartly sunny.14 mph70%29.61 "Hg15 mi
12:00 pm34 °FPartly sunny.13 mph75%29.63 "Hg15 mi
11:00 am32 °FBroken clouds.8 mph69%29.65 "Hg15 mi
10:00 am28 °FPartly sunny.9 mph74%29.65 "Hg15 mi
9:00 am18 °FPartly sunny.9 mph79%29.68 "Hg15 mi
8:00 am18 °FPassing clouds.12 mph79%29.70 "Hg15 mi
7:00 am21 °FPassing clouds.13 mph74%29.72 "Hg15 mi
6:00 am21 °FPassing clouds.10 mph74%29.75 "Hg15 mi
5:00 am19 °FPassing clouds.13 mph73%29.78 "Hg15 mi
4:00 am18 °FPassing clouds.15 mph79%29.82 "Hg15 mi
3:00 am16 °FPassing clouds.10 mph79%29.86 "Hg15 mi
2:00 am18 °FPassing clouds.15 mph79%29.88 "Hg15 mi
1:00 am19 °FPassing clouds.15 mph73%29.93 "Hg15 mi
12:00 am16 °FPassing clouds.9 mph79%29.96 "Hg15 mi
11:00 pm
Mon, Jan 16
12 °FPassing clouds.12 mph85%30.01 "Hg15 mi
10:00 pm14 °FPassing clouds.10 mph85%30.04 "Hg15 mi
9:00 pm18 °FPassing clouds.7 mph86%30.06 "Hg15 mi
8:00 pm14 °FPassing clouds.12 mph92%30.07 "Hg15 mi
Weather by CustomWeather, © 2017

See weather overviewHow to use our weather pages